Retour au catalogue

ATLAS 5 CENTAUR R/B

ActifHEO
NORAD 40375·ROCKET BODY·🇺🇸 United States

Lancé Jan 21, 2015 depuis Cape Canaveral Space Force Station

Loading…

Prochains Passages (prochaines 24 heures)

TLE

FraisSource: Space-Track

Époque: Sep 14, 2026, 10:45 UTC

1 40375U 15002B   26257.44846208 -.00000063  00000-0  00000-0 0  9995
2 40375  18.7774 275.3421 6085286 153.9162 257.0705  2.08934098 88927

Suivez ATLAS 5 CENTAUR R/B en temps réel avec AllMySat

Download on the App Store